CW9676 Weather Reports


time (UTC)temp
F
wind
direction
speed
knots
gust
knots
rain 1hr
in
rain 24hr
in
rain mn
in
humidity
%
barometer
mb
20260905093505 66 192 3.5 7.0 0.00 0.00 0.00 72 1006.5
20260905092458 67 195 4.3 12.2 0.00 0.00 0.00 71 1006.6
20260905091516 67 4 4.3 12.2 0.00 0.00 0.00 71 1006.5
20260905090535 67 201 3.5 12.2 0.00 0.14 0.00 70 1006.6
20260905085556 67 211 3.5 7.0 0.00 0.36 0.00 69 1006.6
20260905083429 67 206 2.6 7.8 0.00 0.39 0.00 71 1006.7
20260905082446 66 4 2.6 4.3 0.00 0.39 0.00 71 1006.8
20260905081435 66 231 1.7 4.3 0.00 0.39 0.00 72 1006.7
20260905080404 67 181 1.7 3.5 0.00 0.39 0.00 71 1006.8
20260905075357 67 199 1.7 3.5 0.00 0.39 0.00 70 1006.9
20260905074332 67 211 0.9 2.6 0.00 0.39 0.00 70 1006.9
20260905073338 68 161 0.0 0.9 0.00 0.39 0.00 67 1007.1
20260905071215 69 213 2.6 6.1 0.00 0.39 0.00 67 1007.1
20260905070154 68 211 3.5 5.2 0.00 0.39 0.00 69 1007.1
20260905065127 68 225 3.5 5.2 0.00 0.39 0.00 70 1007.0
20260905062939 69 237 3.5 7.0 0.00 0.39 0.00 69 1007.1
20260905061919 69 194 2.6 4.3 0.00 0.39 0.00 68 1007.1
20260905060844 69 215 2.6 4.3 0.00 0.39 0.00 67 1007.2
20260905055821 69 229 2.6 3.5 0.00 0.39 0.38 68 1007.2
20260905054811 69 233 1.7 2.6 0.00 0.39 0.38 67 1007.3
20260905053827 69 214 1.7 2.6 0.00 0.39 0.38 67 1007.3
20260905052806 69 225 2.6 3.5 0.00 0.39 0.38 67 1007.3
20260905051823 69 231 2.6 3.5 0.00 0.39 0.38 68 1007.2
20260905050754 69 261 1.7 3.5 0.00 0.39 0.38 67 1007.4
20260905045809 70 219 0.9 2.6 0.00 0.39 0.38 66 1007.4
20260905044810 70 179 0.9 2.6 0.00 0.39 0.38 64 1007.3
20260905043747 70 209 0.9 4.3 0.00 0.39 0.38 63 1007.3
20260905042753 71 4 1.7 4.3 0.00 0.39 0.38 62 1007.2
20260905041812 71 167 2.6 7.0 0.00 0.39 0.38 61 1007.2
20260905035652 72 179 2.6 4.3 0.00 0.39 0.38 60 1007.2
20260905034716 72 190 1.7 6.1 0.00 0.39 0.38 60 1007.1
20260905032555 71 167 2.6 7.0 0.00 0.39 0.38 62 1007.1
20260905031600 71 217 1.7 3.5 0.00 0.39 0.38 63 1007.1
20260905030617 70 214 0.9 1.7 0.00 0.39 0.38 65 1006.9
20260905025621 71 57 0.0 0.0 0.00 0.39 0.38 65 1006.8
20260905023501 71 43 0.0 0.0 0.00 0.39 0.38 65 1006.6
20260905022520 72 144 0.0 4.3 0.00 0.39 0.38 63 1006.3
20260905021515 72 121 0.0 0.0 0.00 0.39 0.38 61 1006.1
20260905020445 73 121 0.0 0.0 0.00 0.39 0.38 60 1006.1
20260905015413 74 121 0.0 0.0 0.00 0.39 0.38 56 1006.0
20260905014431 75 121 0.9 2.6 0.00 0.39 0.38 55 1006.1
20260905012317 76 187 1.7 4.3 0.00 0.39 0.38 52 1006.1
20260905011327 76 230 0.9 5.2 0.00 0.39 0.38 52 1006.0
20260905010301 76 265 2.6 8.7 0.00 0.39 0.38 51 1006.0
20260905005238 77 264 4.3 8.7 0.00 0.39 0.38 48 1005.8
20260905004214 78 288 4.3 8.7 0.00 0.39 0.38 48 1005.8
20260905003204 78 279 6.1 10.4 0.00 0.39 0.38 48 1005.6
20260905002222 78 288 5.2 10.4 0.00 0.39 0.38 51 1005.5
20260905001218 77 278 5.2 13.9 0.00 0.39 0.38 53 1005.5
20260905000144 76 282 7.0 16.5 0.00 0.39 0.38 54 1005.3
20260904235114 77 304 9.6 20.9 0.00 0.39 0.38 53 1005.2
20260904234117 79 283 7.0 20.9 0.00 0.39 0.38 49 1005.1
20260904233121 83 185 7.0 14.8 0.00 0.39 0.38 43 1005.0
20260904232128 82 225 7.8 14.8 0.00 0.39 0.38 43 1004.8
20260904231127 83 162 7.0 13.9 0.00 0.39 0.38 43 1004.9
20260904230053 83 173 7.0 16.5 0.00 0.39 0.38 42 1005.0
20260904225033 81 220 8.7 16.5 0.00 0.39 0.38 45 1005.0
20260904224020 84 175 7.0 16.5 0.00 0.39 0.38 42 1005.1
20260904222952 84 244 6.1 16.5 0.00 0.39 0.38 44 1005.0
20260904221942 84 237 7.8 15.6 0.00 0.39 0.38 42 1005.0
20260904215842 82 231 6.1 11.3 0.00 0.39 0.38 45 1005.3
20260904213745 83 180 7.0 15.6 0.00 0.39 0.38 46 1005.6
20260904212810 82 4 7.0 14.8 0.00 0.39 0.38 48 1005.6
20260904211744 81 4 8.7 14.8 0.00 0.39 0.38 48 1005.6
20260904210740 81 213 7.8 15.6 0.00 0.39 0.38 48 1005.7
20260904205713 82 211 7.8 15.6 0.00 0.39 0.38 46 1005.9
20260904204707 82 181 7.8 15.6 0.00 0.39 0.38 47 1005.9
20260904203704 80 166 7.8 15.6 0.00 0.39 0.38 53 1006.1
20260904202708 79 222 5.2 13.9 0.00 0.39 0.38 54 1006.3
20260904201650 79 227 7.0 13.9 0.00 0.39 0.38 55 1006.4
20260904200632 78 177 7.0 12.2 0.00 0.39 0.38 56 1006.6
20260904195623 79 186 7.0 12.2 0.00 0.39 0.38 56 1006.7
20260904194614 78 4 7.0 13.0 0.00 0.39 0.38 57 1006.9
20260904193557 78 226 8.7 16.5 0.00 0.39 0.38 54 1007.0
20260904192553 79 186 7.0 14.8 0.00 0.39 0.38 56 1007.1
20260904191606 78 150 2.6 12.2 0.00 0.39 0.38 53 1007.3
20260904190557 78 194 5.2 12.2 0.00 0.39 0.38 52 1007.4
20260904185544 80 143 5.2 11.3 0.00 0.39 0.38 50 1007.5
20260904184551 80 154 3.5 9.6 0.00 0.39 0.38 50 1007.6
20260904183528 79 245 3.5 8.7 0.00 0.39 0.38 51 1007.5
20260904182517 79 4 4.3 8.7 0.00 0.39 0.38 53 1007.7
20260904181536 78 211 3.5 8.7 0.00 0.39 0.38 59 1008.0
20260904180555 77 218 3.5 7.8 0.00 0.39 0.38 62 1008.1
20260904175541 75 152 2.6 7.8 0.00 0.39 0.38 62 1008.2
20260904174602 75 165 3.5 8.7 0.00 0.39 0.38 62 1008.5
20260904171251 74 213 3.5 9.6 0.00 0.39 0.38 68 1008.8
20260904170301 75 187 3.5 9.6 0.00 0.39 0.38 64 1008.7
20260904165246 74 4 4.3 8.7 0.00 0.39 0.38 69 1008.8
20260904163137 72 179 4.3 7.8 0.00 0.39 0.38 74 1008.6
20260904162128 72 130 3.5 9.6 0.00 0.39 0.38 72 1008.7
20260904161136 72 132 4.3 10.4 0.00 0.39 0.38 73 1008.7
20260904160125 71 215 4.3 10.4 0.00 0.39 0.38 76 1008.6
20260904155144 70 159 4.3 8.7 0.00 0.39 0.38 78 1008.6
20260904154126 69 192 2.6 7.0 0.00 0.39 0.38 81 1008.6
20260904153059 68 179 3.5 7.8 0.00 0.39 0.38 83 1008.6
20260904150918 67 204 3.5 6.1 0.00 0.39 0.38 85 1008.7
20260904145904 67 194 3.5 7.0 0.00 0.39 0.38 84 1008.6
20260904143735 67 4 2.6 5.2 0.00 0.39 0.38 85 1008.6
20260904141702 67 217 1.7 5.2 0.00 0.39 0.38 87 1008.3
20260904140714 66 200 2.6 5.2 0.00 0.39 0.38 87 1008.2
20260904133459 64 215 2.6 7.0 0.00 0.39 0.38 91 1007.7
20260904131313 63 206 2.6 5.2 0.00 0.39 0.38 92 1007.5
20260904130253 63 204 3.5 7.0 0.00 0.39 0.38 91 1007.3
20260904125300 63 210 3.5 7.8 0.00 0.39 0.38 92 1007.1
20260904124309 63 225 4.3 8.7 0.00 0.39 0.38 92 1006.9
20260904123329 63 215 4.3 9.6 0.00 0.39 0.38 92 1006.8
20260904122306 63 207 4.3 9.6 0.00 0.39 0.38 92 1006.8
20260904120105 63 198 4.3 7.8 0.00 0.39 0.38 92 1006.6
20260904115032 63 175 3.5 8.7 0.00 0.39 0.38 92 1006.6
20260904114019 63 213 4.3 8.7 0.00 0.39 0.38 93 1006.7
20260904113033 63 213 4.3 7.8 0.00 0.39 0.38 93 1006.7
20260904112010 63 209 2.6 5.2 0.00 0.39 0.38 93 1006.6
20260904110940 63 209 2.6 5.2 0.00 0.39 0.38 94 1006.6
20260904105932 63 209 2.6 4.3 0.00 0.39 0.38 94 1006.5
20260904104953 63 225 0.9 2.6 0.00 0.39 0.38 95 1006.6
20260904103954 63 340 0.0 0.9 0.00 0.39 0.38 95 1006.6
20260904103016 63 340 0.0 0.9 0.00 0.39 0.38 95 1006.6
20260904102041 63 111 0.0 0.9 0.00 0.39 0.38 95 1006.6
20260904101034 63 111 0.0 1.7 0.00 0.39 0.38 95 1006.8
20260904100005 63 337 2.6 7.8 0.00 0.39 0.38 94 1006.8